DW6885 Weather Reports


Display with metric or nautical units.
time (UTC)temp
F
wind
direction
speed
MPH
gust
MPH
rain 1hr
in
rain 24hr
in
rain mn
in
humidity
%
barometer
mb
20170921084105 63 112 0.0 2.0 0.00 0.06 0.00 94 1013.8
20170921082606 63 102 0.0 5.0 0.00 0.06 0.00 94 1013.7
20170921081107 63 104 1.0 6.0 0.00 0.06 0.00 94 1013.6
20170921075601 63 116 0.0 4.0 0.00 0.06 0.00 95 1013.7
20170921074056 63 282 0.0 5.0 0.00 0.06 0.00 94 1013.5
20170921072559 64 117 0.0 9.0 0.00 0.06 0.00 95 1013.4
20170921071057 64 217 0.0 3.0 0.00 0.06 0.00 95 1013.4
20170921065608 64 234 0.0 6.0 0.00 0.07 0.00 95 1013.2
20170921064057 64 173 0.0 3.0 0.00 0.07 0.00 95 1013.3
20170921062601 64 103 0.0 3.0 0.00 0.07 0.00 96 1013.1
20170921061050 64 75 0.0 11.0 0.00 0.07 0.00 96 1013.0
20170921055554 64 254 0.0 6.0 0.00 0.08 0.00 96 1013.1
20170921054054 65 14 0.0 2.0 0.00 0.08 0.00 96 1013.3
20170921052604 65 120 1.0 5.0 0.00 0.08 0.00 96 1013.3
20170921051049 65 172 0.0 6.0 0.00 0.08 0.00 96 1013.3
20170921045549 65 85 0.0 3.0 0.00 0.08 0.00 96 1013.2
20170921044053 65 57 1.0 4.0 0.00 0.08 0.00 96 1013.2
20170921042552 65 136 0.0 2.0 0.00 0.08 0.00 96 1013.3
20170921041046 65 5 0.0 6.0 0.00 0.08 0.00 96 1013.1
20170921035545 64 350 0.0 4.0 0.00 0.08 0.08 97 1013.2
20170921032828 64 114 0.0 4.0 0.01 0.08 0.08 98 1013.1
20170921031359 64 246 0.0 1.0 0.01 0.08 0.08 98 1013.0
20170921025541 64 246 0.0 4.0 0.01 0.08 0.08 98 1012.9
20170921024043 64 94 0.0 4.0 0.00 0.07 0.07 98 1012.9
20170921022548 64 171 0.0 5.0 0.00 0.07 0.07 98 1012.8
20170921021050 64 232 0.0 2.0 0.00 0.07 0.07 98 1012.8
20170921015539 64 136 0.0 3.0 0.00 0.07 0.07 98 1012.7
20170921014043 65 169 0.0 1.0 0.00 0.07 0.07 98 1012.7
20170921012539 65 178 0.0 2.0 0.00 0.07 0.07 98 1012.8
20170921011035 65 229 0.0 3.0 0.00 0.07 0.07 98 1012.8
20170921005541 65 134 0.0 4.0 0.00 0.07 0.07 98 1012.8
20170921004041 65 32 0.0 5.0 0.00 0.07 0.07 98 1012.7
20170921002539 65 38 0.0 3.0 0.00 0.07 0.07 98 1012.6
20170921001034 65 161 0.0 1.0 0.00 0.07 0.07 98 1012.7
20170920235534 65 261 0.0 0.0 0.00 0.07 0.07 98 1012.6
20170920234035 65 261 0.0 0.0 0.02 0.07 0.07 98 1012.7
20170920232533 66 275 0.0 3.0 0.02 0.07 0.07 97 1012.6
20170920231031 66 323 0.0 1.0 0.02 0.07 0.07 97 1012.5
20170920225531 67 316 0.0 2.0 0.02 0.07 0.07 96 1012.6
20170920224045 67 126 0.0 5.0 0.00 0.05 0.05 94 1012.6
20170920222529 67 262 0.0 4.0 0.00 0.05 0.05 94 1012.3
20170920221045 67 282 0.0 1.0 0.00 0.05 0.05 94 1012.1
20170920215528 67 229 0.0 1.0 0.00 0.05 0.05 94 1012.1
20170920214050 67 9 0.0 3.0 0.00 0.05 0.05 94 1012.1
20170920212534 68 26 0.0 2.0 0.00 0.05 0.05 94 1012.0
20170920211031 68 74 0.0 5.0 0.00 0.05 0.05 95 1011.9
20170920205526 67 195 0.0 3.0 0.00 0.05 0.05 95 1012.0
20170920204026 67 217 0.0 5.0 0.00 0.05 0.05 95 1012.1
20170920202540 67 250 0.0 8.0 0.00 0.05 0.05 95 1012.1
20170920201035 67 228 0.0 3.0 0.00 0.05 0.05 95 1012.0
20170920195538 68 76 0.0 7.0 0.00 0.05 0.05 94 1012.1
20170920194023 68 57 0.0 6.0 0.00 0.05 0.05 96 1012.0
20170920192520 67 323 1.0 9.0 0.00 0.05 0.05 96 1011.9
20170920191021 67 351 0.0 8.0 0.00 0.05 0.05 96 1012.0
20170920185528 67 75 0.0 7.0 0.00 0.05 0.05 96 1012.0
20170920184018 67 146 0.0 7.0 0.00 0.05 0.05 96 1012.0
20170920182529 67 96 0.0 4.0 0.00 0.05 0.05 96 1012.1
20170920181015 67 300 1.0 8.0 0.00 0.05 0.05 96 1012.2
20170920175518 67 160 0.0 5.0 0.00 0.05 0.05 96 1012.3
20170920174019 67 68 0.0 2.0 0.00 0.05 0.05 97 1012.1
20170920172519 67 285 0.0 4.0 0.00 0.05 0.05 97 1012.1
20170920171016 67 110 0.0 3.0 0.00 0.05 0.05 97 1012.2
20170920165513 67 355 0.0 5.0 0.00 0.05 0.05 97 1012.4
20170920164020 67 284 0.0 4.0 0.00 0.05 0.05 99 1012.3
20170920162517 66 305 0.0 4.0 0.00 0.05 0.05 99 1012.4
20170920161016 66 29 0.0 11.0 0.00 0.05 0.05 99 1012.4
20170920155520 66 311 0.0 6.0 0.00 0.05 0.05 99 1012.5
20170920154014 66 38 1.0 4.0 0.00 0.05 0.05 99 1012.6
20170920152505 66 207 0.0 3.0 0.00 0.05 0.05 99 1012.6
20170920151009 65 281 0.0 6.0 0.00 0.05 0.05 99 1012.7
20170920145503 65 19 0.0 3.0 0.01 0.05 0.05 99 1012.7
20170920144002 65 269 0.0 3.0 0.01 0.05 0.05 99 1012.8
20170920142507 65 48 1.0 7.0 0.01 0.05 0.05 99 1012.9
20170920141000 65 259 0.0 8.0 0.01 0.05 0.05 99 1012.9
20170920135459 65 17 0.0 4.0 0.00 0.04 0.04 99 1012.9
20170920134012 65 114 0.0 3.0 0.00 0.04 0.04 99 1012.7
20170920132501 65 127 1.0 5.0 0.00 0.04 0.04 99 1012.8
20170920131006 65 51 0.0 5.0 0.00 0.04 0.04 99 1012.7
20170920125458 65 96 1.0 7.0 0.00 0.04 0.04 99 1012.7
20170920123958 65 287 0.0 7.0 0.00 0.04 0.04 99 1012.6
20170920122457 65 114 0.0 2.0 0.00 0.04 0.04 99 1012.8
20170920121004 64 105 0.0 2.0 0.00 0.04 0.04 99 1012.7
20170920115455 64 5 1.0 9.0 0.00 0.04 0.04 99 1012.6
20170920114004 64 254 0.0 2.0 0.01 0.04 0.04 99 1012.6
20170920112455 64 309 0.0 3.0 0.02 0.04 0.04 99 1012.6
20170920111001 64 89 0.0 4.0 0.02 0.04 0.04 99 1012.7
20170920105450 64 88 0.0 4.0 0.02 0.04 0.04 99 1012.7
20170920103951 64 36 0.0 3.0 0.01 0.03 0.03 99 1012.6
20170920102448 64 156 0.0 8.0 0.00 0.02 0.02 99 1012.6
20170920100948 64 235 0.0 8.0 0.00 0.02 0.02 99 1012.4
20170920095455 64 13 0.0 2.0 0.00 0.02 0.02 99 1012.3
20170920093956 64 311 0.0 9.0 0.00 0.02 0.02 99 1012.3
20170920092452 64 93 0.0 1.0 0.00 0.02 0.02 99 1012.2
20170920090949 64 93 0.0 4.0 0.00 0.02 0.02 99 1012.1
20170920085455 64 286 0.0 9.0 0.00 0.02 0.02 99 1012.0